owner,sensor,date,latitude,longitude,vertical_datum,sea_water_temperature,qcFlag
ATP,ioos:station:wmo:42869:1,2020-06-01T00:03:00Z,26.9961,-92.2303,7.4,27.7,11111222
ATP,ioos:station:wmo:42869:1,2020-06-01T00:13:00Z,26.9961,-92.2302,7.3,27.6,11111222
ATP,ioos:station:wmo:42869:1,2020-06-01T00:23:00Z,26.9961,-92.2302,7.3,27.7,11111222
ATP,ioos:station:wmo:42869:1,2020-06-01T00:33:00Z,26.9961,-92.2303,7.2,27.6,11111222
ATP,ioos:station:wmo:42869:1,2020-06-01T00:43:00Z,26.9961,-92.2302,7.4,27.6,11111222
ATP,ioos:station:wmo:42869:1,2020-06-01T00:53:00Z,26.9963,-92.2303,7.4,27.6,11111222
ATP,ioos:station:wmo:42869:1,2020-06-01T01:03:00Z,26.9962,-92.2304,7.4,27.6,11111222
ATP,ioos:station:wmo:42869:1,2020-06-01T01:13:00Z,26.9963,-92.2306,7.4,27.6,11111222
ATP,ioos:station:wmo:42869:1,2020-06-01T01:23:00Z,26.9962,-92.2302,7.3,27.5,11111222
ATP,ioos:station:wmo:42869:1,2020-06-01T01:33:00Z,26.9962,-92.2304,7.3,27.5,11111222
ATP,ioos:station:wmo:42869:1,2020-06-01T01:43:00Z,26.9962,-92.2302,7.4,27.5,11111222
ATP,ioos:station:wmo:42869:1,2020-06-01T01:53:00Z,26.9964,-92.2302,7.2,27.5,11111222
ATP,ioos:station:wmo:42869:1,2020-06-01T02:03:00Z,26.9962,-92.2302,7.3,27.5,11111222
ATP,ioos:station:wmo:42869:1,2020-06-01T02:13:00Z,26.9962,-92.2302,7.3,27.5,11111222
ATP,ioos:station:wmo:42869:1,2020-06-01T02:23:00Z,26.9962,-92.2303,7.4,27.4,11111222
ATP,ioos:station:wmo:42869:1,2020-06-01T02:33:00Z,26.9964,-92.2303,7.4,27.4,11111222
ATP,ioos:station:wmo:42869:1,2020-06-01T02:43:00Z,26.9962,-92.2303,7.3,27.5,11111222
ATP,ioos:station:wmo:42869:1,2020-06-01T02:53:00Z,26.9961,-92.2302,7.4,27.5,11111222
ATP,ioos:station:wmo:42869:1,2020-06-01T03:03:00Z,26.9960,-92.2303,7.5,27.5,11111222
ATP,ioos:station:wmo:42869:1,2020-06-01T03:13:00Z,26.9963,-92.2303,7.3,27.5,11111222
ATP,ioos:station:wmo:42869:1,2020-06-01T03:23:00Z,26.9962,-92.2303,7.4,27.5,11111222
ATP,ioos:station:wmo:42869:1,2020-06-01T03:33:00Z,26.9962,-92.2302,7.3,27.5,11111222
ATP,ioos:station:wmo:42869:1,2020-06-01T03:43:00Z,26.9961,-92.2303,7.4,27.5,11111222
ATP,ioos:station:wmo:42869:1,2020-06-01T03:53:00Z,26.9961,-92.2303,7.3,27.5,11111222
ATP,ioos:station:wmo:42869:1,2020-06-01T04:03:00Z,26.9961,-92.2303,7.2,27.6,11111222
ATP,ioos:station:wmo:42869:1,2020-06-01T04:13:00Z,26.9962,-92.2302,7.2,27.6,11111222
ATP,ioos:station:wmo:42869:1,2020-06-01T04:23:00Z,26.9962,-92.2303,7.3,27.6,11111222
ATP,ioos:station:wmo:42869:1,2020-06-01T04:33:00Z,26.9962,-92.2304,7.3,27.6,11111222
ATP,ioos:station:wmo:42869:1,2020-06-01T04:43:00Z,26.9963,-92.2303,7.3,27.6,11111222
ATP,ioos:station:wmo:42869:1,2020-06-01T04:53:00Z,26.9963,-92.2304,7.5,27.5,11111222
ATP,ioos:station:wmo:42869:1,2020-06-01T05:03:00Z,26.9964,-92.2304,7.2,27.5,11111222
ATP,ioos:station:wmo:42869:1,2020-06-01T05:13:00Z,26.9965,-92.2305,7.3,27.5,11111222
ATP,ioos:station:wmo:42869:1,2020-06-01T05:23:00Z,26.9967,-92.2306,7.3,27.5,11111222
ATP,ioos:station:wmo:42869:1,2020-06-01T05:33:00Z,26.9960,-92.2301,7.4,27.5,11111222
ATP,ioos:station:wmo:42869:1,2020-06-01T05:43:00Z,26.9961,-92.2302,7.4,27.5,11111222
ATP,ioos:station:wmo:42869:1,2020-06-01T05:53:00Z,26.9967,-92.2303,7.3,27.5,11111222
ATP,ioos:station:wmo:42869:1,2020-06-01T06:03:00Z,26.9962,-92.2302,7.4,27.4,11111222
ATP,ioos:station:wmo:42869:1,2020-06-01T06:13:00Z,26.9961,-92.2302,7.3,27.5,11111222
ATP,ioos:station:wmo:42869:1,2020-06-01T06:23:00Z,26.9961,-92.2302,7.2,27.5,11111222
ATP,ioos:station:wmo:42869:1,2020-06-01T06:33:00Z,26.9959,-92.2299,7.4,27.4,11111222
ATP,ioos:station:wmo:42869:1,2020-06-01T06:43:00Z,26.9959,-92.2299,7.2,27.4,11111222
ATP,ioos:station:wmo:42869:1,2020-06-01T06:53:00Z,26.9959,-92.2299,7.2,27.5,11111222
ATP,ioos:station:wmo:42869:1,2020-06-01T07:03:00Z,26.9959,-92.2299,7.2,27.5,11111222
ATP,ioos:station:wmo:42869:1,2020-06-01T07:13:00Z,26.9958,-92.2299,7.2,27.5,11111222
ATP,ioos:station:wmo:42869:1,2020-06-01T07:23:00Z,26.9957,-92.2299,7.2,27.5,11111222
ATP,ioos:station:wmo:42869:1,2020-06-01T07:33:00Z,26.9962,-92.2300,7.3,27.4,11111222
ATP,ioos:station:wmo:42869:1,2020-06-01T07:43:00Z,26.9958,-92.2299,7.2,27.5,11111222
ATP,ioos:station:wmo:42869:1,2020-06-01T07:53:00Z,26.9957,-92.2299,7.1,27.5,11111222
ATP,ioos:station:wmo:42869:1,2020-06-01T08:03:00Z,26.9958,-92.2299,7.3,27.5,11111222
ATP,ioos:station:wmo:42869:1,2020-06-01T08:13:00Z,26.9957,-92.2299,7.4,27.5,11111222
ATP,ioos:station:wmo:42869:1,2020-06-01T08:23:00Z,26.9957,-92.2298,7.2,27.5,11111222
ATP,ioos:station:wmo:42869:1,2020-06-01T08:33:00Z,26.9967,-92.2298,7.3,27.5,11111222
ATP,ioos:station:wmo:42869:1,2020-06-01T08:43:00Z,26.9959,-92.2299,7.2,27.6,11111222
ATP,ioos:station:wmo:42869:1,2020-06-01T08:53:00Z,26.9962,-92.2299,7.3,27.6,11111222
ATP,ioos:station:wmo:42869:1,2020-06-01T09:03:00Z,26.9959,-92.2299,7.3,27.6,11111222
ATP,ioos:station:wmo:42869:1,2020-06-01T09:13:00Z,26.9959,-92.2299,7.3,27.6,11111222
ATP,ioos:station:wmo:42869:1,2020-06-01T09:23:00Z,26.9959,-92.2298,7.4,27.6,11111222
ATP,ioos:station:wmo:42869:1,2020-06-01T09:33:00Z,26.9959,-92.2299,7.4,27.6,11111222
ATP,ioos:station:wmo:42869:1,2020-06-01T09:43:00Z,26.9960,-92.2297,7.2,27.5,11111222
ATP,ioos:station:wmo:42869:1,2020-06-01T09:53:00Z,26.9958,-92.2299,7.3,27.6,11111222
ATP,ioos:station:wmo:42869:1,2020-06-01T10:03:00Z,26.9959,-92.2300,7.5,27.6,11111222
ATP,ioos:station:wmo:42869:1,2020-06-01T10:13:00Z,26.9457,-92.1865,7.3,27.6,11111222
ATP,ioos:station:wmo:42869:1,2020-06-01T10:23:00Z,26.9822,-92.1789,7.2,27.5,11111222
ATP,ioos:station:wmo:42869:1,2020-06-01T10:33:00Z,26.9870,-92.1758,7.3,27.5,11111222
ATP,ioos:station:wmo:42869:1,2020-06-01T10:43:00Z,26.9924,-92.1722,7.3,27.5,11111222
ATP,ioos:station:wmo:42869:1,2020-06-01T10:53:00Z,26.9978,-92.1690,7.4,27.6,11111222
ATP,ioos:station:wmo:42869:1,2020-06-01T11:03:00Z,27.0032,-92.1673,7.2,27.6,11111222
ATP,ioos:station:wmo:42869:1,2020-06-01T11:13:00Z,27.0059,-92.1697,7.2,27.6,11111222
ATP,ioos:station:wmo:42869:1,2020-06-01T11:23:00Z,27.0029,-92.1815,7.2,27.6,11111222
ATP,ioos:station:wmo:42869:1,2020-06-01T11:33:00Z,27.0403,-92.2079,7.3,27.6,11111222
ATP,ioos:station:wmo:42869:1,2020-06-01T11:43:00Z,26.9958,-92.2300,7.4,27.6,11111222
ATP,ioos:station:wmo:42869:1,2020-06-01T11:53:00Z,26.9966,-92.2275,7.2,27.6,11111222
ATP,ioos:station:wmo:42869:1,2020-06-01T12:03:00Z,26.9958,-92.2299,7.2,27.6,11111222
ATP,ioos:station:wmo:42869:1,2020-06-01T12:13:00Z,26.9958,-92.2299,7.3,27.6,11111222
ATP,ioos:station:wmo:42869:1,2020-06-01T12:23:00Z,26.9956,-92.2299,7.2,27.5,11111222
ATP,ioos:station:wmo:42869:1,2020-06-01T12:33:00Z,26.9964,-92.2297,7.2,27.5,11111222
ATP,ioos:station:wmo:42869:1,2020-06-01T12:43:00Z,26.9961,-92.2299,7.1,27.5,11111222
ATP,ioos:station:wmo:42869:1,2020-06-01T12:53:00Z,26.9957,-92.2299,7.3,27.4,11111222
ATP,ioos:station:wmo:42869:1,2020-06-01T13:03:00Z,26.9960,-92.2299,7.1,27.4,11111222
ATP,ioos:station:wmo:42869:1,2020-06-01T13:13:00Z,26.9956,-92.2299,7.1,27.5,11111222
ATP,ioos:station:wmo:42869:1,2020-06-01T13:23:00Z,26.9958,-92.2299,7.3,27.5,11111222
ATP,ioos:station:wmo:42869:1,2020-06-01T13:33:00Z,26.9958,-92.2299,7.2,27.5,11111222
ATP,ioos:station:wmo:42869:1,2020-06-01T13:43:00Z,26.9957,-92.2299,7.2,27.5,11111222
ATP,ioos:station:wmo:42869:1,2020-06-01T13:53:00Z,26.9961,-92.2299,7.2,27.5,11111222
ATP,ioos:station:wmo:42869:1,2020-06-01T14:03:00Z,26.9958,-92.2299,7.2,27.5,11111222
ATP,ioos:station:wmo:42869:1,2020-06-01T14:13:00Z,26.9959,-92.2299,7.3,27.5,11111222
ATP,ioos:station:wmo:42869:1,2020-06-01T14:23:00Z,26.9959,-92.2299,7.1,27.5,11111222
ATP,ioos:station:wmo:42869:1,2020-06-01T14:33:00Z,26.9959,-92.2299,7.2,27.5,11111222
ATP,ioos:station:wmo:42869:1,2020-06-01T14:43:00Z,26.9959,-92.2299,7.3,27.5,11111222
ATP,ioos:station:wmo:42869:1,2020-06-01T14:53:00Z,26.9958,-92.2299,7.2,27.5,11111222
ATP,ioos:station:wmo:42869:1,2020-06-01T15:03:00Z,26.9959,-92.2299,7.2,27.5,11111222
ATP,ioos:station:wmo:42869:1,2020-06-01T15:13:00Z,26.9959,-92.2299,7.4,27.5,11111222
ATP,ioos:station:wmo:42869:1,2020-06-01T15:23:00Z,26.9960,-92.2299,7.3,27.5,11111222
ATP,ioos:station:wmo:42869:1,2020-06-01T15:33:00Z,26.9958,-92.2299,7.4,27.5,11111222
ATP,ioos:station:wmo:42869:1,2020-06-01T15:43:00Z,26.9960,-92.2299,7.2,27.5,11111222
ATP,ioos:station:wmo:42869:1,2020-06-01T15:53:00Z,26.9957,-92.2299,7.3,27.5,11111222
ATP,ioos:station:wmo:42869:1,2020-06-01T16:03:00Z,26.9958,-92.2299,7.4,27.5,11111222
ATP,ioos:station:wmo:42869:1,2020-06-01T16:13:00Z,26.9957,-92.2299,7.3,27.5,11111222
ATP,ioos:station:wmo:42869:1,2020-06-01T16:23:00Z,26.9959,-92.2299,7.2,27.5,11111222
ATP,ioos:station:wmo:42869:1,2020-06-01T16:33:00Z,26.9958,-92.2299,7.3,27.5,11111222
ATP,ioos:station:wmo:42869:1,2020-06-01T16:43:00Z,26.9959,-92.2299,7.1,27.5,11111222
ATP,ioos:station:wmo:42869:1,2020-06-01T16:53:00Z,26.9960,-92.2300,7.3,27.4,11111222
ATP,ioos:station:wmo:42869:1,2020-06-01T17:03:00Z,26.9959,-92.2298,7.2,27.4,11111222
ATP,ioos:station:wmo:42869:1,2020-06-01T17:13:00Z,26.9961,-92.2301,7.2,27.4,11111222
ATP,ioos:station:wmo:42869:1,2020-06-01T17:23:00Z,26.9959,-92.2300,7.4,27.4,11111222
ATP,ioos:station:wmo:42869:1,2020-06-01T17:33:00Z,26.9959,-92.2299,7.2,27.4,11111222
ATP,ioos:station:wmo:42869:1,2020-06-01T17:43:00Z,26.9960,-92.2299,7.3,27.4,11111222
ATP,ioos:station:wmo:42869:1,2020-06-01T17:53:00Z,26.9960,-92.2299,7.3,27.4,11111222
ATP,ioos:station:wmo:42869:1,2020-06-01T18:03:00Z,26.9962,-92.2299,7.3,27.5,11111222
ATP,ioos:station:wmo:42869:1,2020-06-01T18:13:00Z,26.9962,-92.2298,7.3,27.4,11111222
ATP,ioos:station:wmo:42869:1,2020-06-01T18:23:00Z,26.9959,-92.2298,7.3,27.4,11111222
ATP,ioos:station:wmo:42869:1,2020-06-01T18:33:00Z,26.9959,-92.2299,7.2,27.5,11111222
ATP,ioos:station:wmo:42869:1,2020-06-01T18:43:00Z,26.9961,-92.2298,7.3,27.5,11111222
ATP,ioos:station:wmo:42869:1,2020-06-01T18:53:00Z,26.9959,-92.2299,7.4,27.5,11111222
ATP,ioos:station:wmo:42869:1,2020-06-01T19:03:00Z,26.9959,-92.2299,7.3,27.5,11111222
ATP,ioos:station:wmo:42869:1,2020-06-01T19:13:00Z,26.9959,-92.2299,7.3,27.5,11111222
ATP,ioos:station:wmo:42869:1,2020-06-01T19:23:00Z,26.9960,-92.2300,7.2,27.5,11111222
ATP,ioos:station:wmo:42869:1,2020-06-01T19:33:00Z,26.9959,-92.2299,7.3,27.5,11111222
ATP,ioos:station:wmo:42869:1,2020-06-01T19:43:00Z,26.9957,-92.2298,7.3,27.5,11111222
ATP,ioos:station:wmo:42869:1,2020-06-01T19:53:00Z,26.9958,-92.2299,7.3,27.5,11111222
ATP,ioos:station:wmo:42869:1,2020-06-01T20:03:00Z,26.9959,-92.2299,7.3,27.5,11111222
ATP,ioos:station:wmo:42869:1,2020-06-01T20:13:00Z,26.9959,-92.2299,7.1,27.5,11111222
ATP,ioos:station:wmo:42869:1,2020-06-01T20:23:00Z,26.9958,-92.2299,7.3,27.4,11111222
ATP,ioos:station:wmo:42869:1,2020-06-01T20:33:00Z,26.9957,-92.2299,7.1,27.5,11111222
ATP,ioos:station:wmo:42869:1,2020-06-01T20:43:00Z,26.9960,-92.2298,7.2,27.5,11111222
ATP,ioos:station:wmo:42869:1,2020-06-01T20:53:00Z,26.9958,-92.2299,7.3,27.5,11111222
ATP,ioos:station:wmo:42869:1,2020-06-01T21:03:00Z,26.9959,-92.2299,7.4,27.5,11111222
ATP,ioos:station:wmo:42869:1,2020-06-01T21:13:00Z,26.9959,-92.2298,7.3,27.5,11111222
ATP,ioos:station:wmo:42869:1,2020-06-01T21:23:00Z,26.9959,-92.2299,7.2,27.5,11111222
ATP,ioos:station:wmo:42869:1,2020-06-01T21:33:00Z,26.9959,-92.2298,7.3,27.5,11111222
ATP,ioos:station:wmo:42869:1,2020-06-01T21:43:00Z,26.9958,-92.2298,7.3,27.5,11111222
ATP,ioos:station:wmo:42869:1,2020-06-01T21:53:00Z,26.9959,-92.2300,7.2,27.5,11111222
ATP,ioos:station:wmo:42869:1,2020-06-01T22:03:00Z,26.9958,-92.2299,7.3,27.5,11111222
ATP,ioos:station:wmo:42869:1,2020-06-01T22:13:00Z,26.9958,-92.2299,7.2,27.5,11111222
ATP,ioos:station:wmo:42869:1,2020-06-01T22:23:00Z,26.9958,-92.2299,7.2,27.5,11111222
ATP,ioos:station:wmo:42869:1,2020-06-01T22:33:00Z,26.9958,-92.2298,7.3,27.4,11111222
ATP,ioos:station:wmo:42869:1,2020-06-01T22:43:00Z,26.9958,-92.2299,7.4,27.4,11111222
ATP,ioos:station:wmo:42869:1,2020-06-01T22:53:00Z,26.9958,-92.2299,7.4,27.4,11111222
ATP,ioos:station:wmo:42869:1,2020-06-01T23:03:00Z,26.9959,-92.2299,7.4,27.4,11111222
ATP,ioos:station:wmo:42869:1,2020-06-01T23:13:00Z,26.9957,-92.2299,7.3,27.5,11111222
ATP,ioos:station:wmo:42869:1,2020-06-01T23:23:00Z,26.9960,-92.2299,7.2,27.4,11111222
ATP,ioos:station:wmo:42869:1,2020-06-01T23:33:00Z,26.9962,-92.2299,7.2,27.4,11111222
ATP,ioos:station:wmo:42869:1,2020-06-01T23:43:00Z,26.9961,-92.2299,7.3,27.5,11111222
ATP,ioos:station:wmo:42869:1,2020-06-01T23:53:00Z,26.9960,-92.2299,7.2,27.4,11111222
ATP,ioos:station:wmo:42869:1,2020-06-02T00:03:00Z,26.9960,-92.2299,7.3,27.5,11111222
ATP,ioos:station:wmo:42869:1,2020-06-02T00:13:00Z,26.9959,-92.2300,7.2,27.5,11111222
ATP,ioos:station:wmo:42869:1,2020-06-02T00:23:00Z,26.9959,-92.2299,7.4,27.5,11111222
ATP,ioos:station:wmo:42869:1,2020-06-02T00:33:00Z,26.9957,-92.2298,7.2,27.5,11111222
ATP,ioos:station:wmo:42869:1,2020-06-02T00:43:00Z,26.9958,-92.2299,7.3,27.4,11111222
ATP,ioos:station:wmo:42869:1,2020-06-02T00:53:00Z,26.9959,-92.2299,7.2,27.4,11111222
ATP,ioos:station:wmo:42869:1,2020-06-02T01:03:00Z,26.9957,-92.2299,7.2,27.4,11111222
ATP,ioos:station:wmo:42869:1,2020-06-02T01:13:00Z,26.9958,-92.2299,7.3,27.5,11111222
ATP,ioos:station:wmo:42869:1,2020-06-02T01:23:00Z,26.9957,-92.2299,7.4,27.5,11111222
ATP,ioos:station:wmo:42869:1,2020-06-02T01:33:00Z,26.9959,-92.2299,7.3,27.5,11111222
ATP,ioos:station:wmo:42869:1,2020-06-02T01:43:00Z,26.9960,-92.2299,7.3,27.5,11111222
ATP,ioos:station:wmo:42869:1,2020-06-02T01:53:00Z,26.9957,-92.2298,7.3,27.5,11111222
ATP,ioos:station:wmo:42869:1,2020-06-02T02:03:00Z,26.9958,-92.2299,7.3,27.5,11111222
ATP,ioos:station:wmo:42869:1,2020-06-02T02:13:00Z,26.9957,-92.2299,7.4,27.5,11111222
ATP,ioos:station:wmo:42869:1,2020-06-02T02:23:00Z,26.9957,-92.2298,7.3,27.5,11111222
ATP,ioos:station:wmo:42869:1,2020-06-02T02:33:00Z,26.9958,-92.2298,7.4,27.5,11111222
ATP,ioos:station:wmo:42869:1,2020-06-02T02:43:00Z,26.9958,-92.2299,7.2,27.5,11111222
ATP,ioos:station:wmo:42869:1,2020-06-02T02:53:00Z,26.9959,-92.2299,7.4,27.5,11111222
ATP,ioos:station:wmo:42869:1,2020-06-02T03:03:00Z,26.9958,-92.2299,7.3,27.5,11111222
ATP,ioos:station:wmo:42869:1,2020-06-02T03:13:00Z,26.9958,-92.2300,7.3,27.5,11111222
ATP,ioos:station:wmo:42869:1,2020-06-02T03:23:00Z,26.9959,-92.2298,7.4,27.5,11111222
ATP,ioos:station:wmo:42869:1,2020-06-02T03:33:00Z,26.9957,-92.2299,7.3,27.5,11111222
ATP,ioos:station:wmo:42869:1,2020-06-02T03:43:00Z,26.9957,-92.2299,7.3,27.5,11111222
ATP,ioos:station:wmo:42869:1,2020-06-02T03:53:00Z,26.9958,-92.2299,7.2,27.5,11111222
ATP,ioos:station:wmo:42869:1,2020-06-02T04:03:00Z,26.9959,-92.2299,7.2,27.4,11111222
ATP,ioos:station:wmo:42869:1,2020-06-02T04:13:00Z,26.9960,-92.2299,7.3,27.4,11111222
ATP,ioos:station:wmo:42869:1,2020-06-02T04:23:00Z,26.9960,-92.2299,7.3,27.4,11111222
ATP,ioos:station:wmo:42869:1,2020-06-02T04:33:00Z,26.9961,-92.2299,7.4,27.4,11111222
ATP,ioos:station:wmo:42869:1,2020-06-02T04:43:00Z,26.9959,-92.2299,7.4,27.4,11111222
ATP,ioos:station:wmo:42869:1,2020-06-02T04:53:00Z,26.9958,-92.2299,7.2,27.4,11111222
ATP,ioos:station:wmo:42869:1,2020-06-02T05:03:00Z,26.9959,-92.2299,7.3,27.4,11111222
ATP,ioos:station:wmo:42869:1,2020-06-02T05:13:00Z,26.9959,-92.2299,7.3,27.5,11111222
ATP,ioos:station:wmo:42869:1,2020-06-02T05:23:00Z,26.9959,-92.2299,7.4,27.5,11111222
ATP,ioos:station:wmo:42869:1,2020-06-02T05:33:00Z,26.9959,-92.2299,7.2,27.4,11111222
ATP,ioos:station:wmo:42869:1,2020-06-02T05:43:00Z,26.9959,-92.2299,7.4,27.5,11111222
ATP,ioos:station:wmo:42869:1,2020-06-02T05:53:00Z,26.9963,-92.2299,7.2,27.4,11111222
ATP,ioos:station:wmo:42869:1,2020-06-02T06:03:00Z,26.9959,-92.2298,7.2,27.5,11111222
ATP,ioos:station:wmo:42869:1,2020-06-02T06:13:00Z,26.9958,-92.2299,7.4,27.4,11111222
ATP,ioos:station:wmo:42869:1,2020-06-02T06:23:00Z,26.9958,-92.2299,7.3,27.4,11111222
ATP,ioos:station:wmo:42869:1,2020-06-02T06:33:00Z,26.9958,-92.2299,7.4,27.4,11111222
ATP,ioos:station:wmo:42869:1,2020-06-02T06:43:00Z,26.9958,-92.2299,7.1,27.4,11111222
ATP,ioos:station:wmo:42869:1,2020-06-02T06:53:00Z,26.9959,-92.2299,7.2,27.4,11111222
ATP,ioos:station:wmo:42869:1,2020-06-02T07:03:00Z,26.9958,-92.2299,7.4,27.4,11111222
ATP,ioos:station:wmo:42869:1,2020-06-02T07:13:00Z,26.9958,-92.2299,7.2,27.4,11111222
ATP,ioos:station:wmo:42869:1,2020-06-02T07:23:00Z,26.9957,-92.2299,7.3,27.4,11111222
ATP,ioos:station:wmo:42869:1,2020-06-02T07:33:00Z,26.9956,-92.2299,7.4,27.4,11111222
ATP,ioos:station:wmo:42869:1,2020-06-02T07:43:00Z,26.9956,-92.2299,7.4,27.4,11111222
ATP,ioos:station:wmo:42869:1,2020-06-02T07:53:00Z,26.9957,-92.2299,7.2,27.4,11111222
ATP,ioos:station:wmo:42869:1,2020-06-02T08:03:00Z,26.9957,-92.2299,7.3,27.4,11111222
ATP,ioos:station:wmo:42869:1,2020-06-02T08:13:00Z,26.9957,-92.2299,7.4,27.4,11111222
ATP,ioos:station:wmo:42869:1,2020-06-02T08:23:00Z,26.9957,-92.2297,7.3,27.4,11111222
ATP,ioos:station:wmo:42869:1,2020-06-02T08:33:00Z,26.9956,-92.2298,7.4,27.4,11111222
ATP,ioos:station:wmo:42869:1,2020-06-02T08:43:00Z,26.9960,-92.2299,7.4,27.5,11111222
ATP,ioos:station:wmo:42869:1,2020-06-02T08:53:00Z,26.9959,-92.2298,7.4,27.5,11111222
ATP,ioos:station:wmo:42869:1,2020-06-02T09:03:00Z,26.9959,-92.2299,7.4,27.5,11111222
ATP,ioos:station:wmo:42869:1,2020-06-02T09:13:00Z,26.9959,-92.2298,7.3,27.5,11111222
ATP,ioos:station:wmo:42869:1,2020-06-02T09:23:00Z,26.9959,-92.2299,7.3,27.5,11111222
ATP,ioos:station:wmo:42869:1,2020-06-02T09:33:00Z,26.9960,-92.2299,7.2,27.3,11111222
ATP,ioos:station:wmo:42869:1,2020-06-02T09:43:00Z,26.9960,-92.2298,7.5,27.3,11111222
ATP,ioos:station:wmo:42869:1,2020-06-02T09:53:00Z,26.9959,-92.2299,7.3,27.4,11111222
ATP,ioos:station:wmo:42869:1,2020-06-02T10:03:00Z,26.9959,-92.2299,7.2,27.4,11111222
ATP,ioos:station:wmo:42869:1,2020-06-02T10:13:00Z,26.9962,-92.2298,7.3,27.4,11111222
ATP,ioos:station:wmo:42869:1,2020-06-02T10:23:00Z,26.9959,-92.2299,7.3,27.4,11111222
ATP,ioos:station:wmo:42869:1,2020-06-02T10:33:00Z,26.9960,-92.2299,7.3,27.4,11111222
ATP,ioos:station:wmo:42869:1,2020-06-02T10:43:00Z,26.9958,-92.2299,7.4,27.4,11111222
ATP,ioos:station:wmo:42869:1,2020-06-02T10:53:00Z,26.9959,-92.2299,7.3,27.3,11111222
ATP,ioos:station:wmo:42869:1,2020-06-02T11:03:00Z,26.9960,-92.2299,7.3,27.4,11111222
ATP,ioos:station:wmo:42869:1,2020-06-02T11:13:00Z,26.9959,-92.2299,7.3,27.3,11111222
ATP,ioos:station:wmo:42869:1,2020-06-02T11:23:00Z,26.9960,-92.2299,7.4,27.5,11111222
ATP,ioos:station:wmo:42869:1,2020-06-02T11:33:00Z,26.9960,-92.2300,7.4,27.5,11111222
ATP,ioos:station:wmo:42869:1,2020-06-02T11:43:00Z,26.9959,-92.2300,7.4,27.5,11111222
ATP,ioos:station:wmo:42869:1,2020-06-02T11:53:00Z,26.9959,-92.2299,7.4,27.5,11111222
ATP,ioos:station:wmo:42869:1,2020-06-02T12:03:00Z,26.9958,-92.2299,7.4,27.5,11111222
ATP,ioos:station:wmo:42869:1,2020-06-02T12:13:00Z,26.9959,-92.2299,7.4,27.5,11111222
ATP,ioos:station:wmo:42869:1,2020-06-02T12:23:00Z,26.9960,-92.2299,7.4,27.5,11111222
ATP,ioos:station:wmo:42869:1,2020-06-02T12:33:00Z,26.9958,-92.2298,7.3,27.5,11111222
ATP,ioos:station:wmo:42869:1,2020-06-02T12:43:00Z,26.9960,-92.2298,7.4,27.5,11111222
ATP,ioos:station:wmo:42869:1,2020-06-02T12:53:00Z,26.9959,-92.2299,7.3,27.4,11111222
ATP,ioos:station:wmo:42869:1,2020-06-02T13:03:00Z,26.9959,-92.2299,7.3,27.4,11111222
ATP,ioos:station:wmo:42869:1,2020-06-02T13:13:00Z,26.9955,-92.2298,7.4,27.5,11111222
ATP,ioos:station:wmo:42869:1,2020-06-02T13:23:00Z,26.9960,-92.2298,7.4,27.5,11111222
ATP,ioos:station:wmo:42869:1,2020-06-02T13:33:00Z,26.9958,-92.2299,7.4,27.5,11111222
ATP,ioos:station:wmo:42869:1,2020-06-02T13:43:00Z,26.9960,-92.2298,7.2,27.5,11111222
ATP,ioos:station:wmo:42869:1,2020-06-02T13:53:00Z,26.9961,-92.2299,7.4,27.5,11111222
ATP,ioos:station:wmo:42869:1,2020-06-02T14:03:00Z,26.9960,-92.2298,7.3,27.5,11111222
ATP,ioos:station:wmo:42869:1,2020-06-02T14:13:00Z,26.9957,-92.2298,7.4,27.4,11111222
ATP,ioos:station:wmo:42869:1,2020-06-02T14:23:00Z,26.9959,-92.2299,7.3,27.4,11111222
ATP,ioos:station:wmo:42869:1,2020-06-02T14:33:00Z,26.9958,-92.2299,7.2,27.4,11111222
ATP,ioos:station:wmo:42869:1,2020-06-02T14:43:00Z,26.9958,-92.2299,7.3,27.4,11111222
ATP,ioos:station:wmo:42869:1,2020-06-02T14:53:00Z,26.9958,-92.2299,7.3,27.4,11111222
ATP,ioos:station:wmo:42869:1,2020-06-02T15:03:00Z,26.9959,-92.2299,7.4,27.4,11111222
ATP,ioos:station:wmo:42869:1,2020-06-02T15:13:00Z,26.9959,-92.2299,7.2,27.4,11111222
ATP,ioos:station:wmo:42869:1,2020-06-02T15:23:00Z,26.9959,-92.2299,7.3,27.4,11111222
ATP,ioos:station:wmo:42869:1,2020-06-02T15:33:00Z,26.9958,-92.2299,7.2,27.4,11111222
ATP,ioos:station:wmo:42869:1,2020-06-02T15:43:00Z,26.9959,-92.2298,7.3,27.4,11111222
ATP,ioos:station:wmo:42869:1,2020-06-02T15:53:00Z,26.9958,-92.2299,7.3,27.4,11111222
ATP,ioos:station:wmo:42869:1,2020-06-02T16:03:00Z,26.9956,-92.2299,7.3,27.4,11111222
ATP,ioos:station:wmo:42869:1,2020-06-02T16:13:00Z,26.9957,-92.2299,7.3,27.4,11111222
ATP,ioos:station:wmo:42869:1,2020-06-02T16:23:00Z,26.9959,-92.2299,7.3,27.4,11111222
ATP,ioos:station:wmo:42869:1,2020-06-02T16:33:00Z,26.9960,-92.2300,7.4,27.4,11111222
ATP,ioos:station:wmo:42869:1,2020-06-02T16:43:00Z,26.9958,-92.2298,7.4,27.4,11111222
ATP,ioos:station:wmo:42869:1,2020-06-02T16:53:00Z,26.9960,-92.2299,7.3,27.4,11111222
ATP,ioos:station:wmo:42869:1,2020-06-02T17:03:00Z,26.9958,-92.2297,7.2,27.4,11111222
ATP,ioos:station:wmo:42869:1,2020-06-02T17:13:00Z,26.9960,-92.2300,7.3,27.4,11111222
ATP,ioos:station:wmo:42869:1,2020-06-02T17:23:00Z,26.9959,-92.2299,7.4,27.4,11111222
ATP,ioos:station:wmo:42869:1,2020-06-02T17:33:00Z,26.9959,-92.2299,7.3,27.4,11111222
ATP,ioos:station:wmo:42869:1,2020-06-02T17:43:00Z,26.9960,-92.2299,7.2,27.4,11111222
ATP,ioos:station:wmo:42869:1,2020-06-02T17:53:00Z,26.9958,-92.2299,7.3,27.4,11111222
ATP,ioos:station:wmo:42869:1,2020-06-02T18:03:00Z,26.9964,-92.2296,7.4,27.4,11111222
ATP,ioos:station:wmo:42869:1,2020-06-02T18:13:00Z,26.9960,-92.2298,7.3,27.4,11111222
ATP,ioos:station:wmo:42869:1,2020-06-02T18:23:00Z,26.9959,-92.2299,7.3,27.4,11111222
ATP,ioos:station:wmo:42869:1,2020-06-02T18:33:00Z,26.9958,-92.2299,7.3,27.4,11111222
ATP,ioos:station:wmo:42869:1,2020-06-02T18:43:00Z,26.9959,-92.2299,7.2,27.4,11111222
ATP,ioos:station:wmo:42869:1,2020-06-02T18:53:00Z,26.9959,-92.2299,7.2,27.4,11111222
ATP,ioos:station:wmo:42869:1,2020-06-02T19:03:00Z,26.9960,-92.2299,7.3,27.4,11111222
ATP,ioos:station:wmo:42869:1,2020-06-02T19:13:00Z,26.9959,-92.2299,7.3,27.4,11111222
ATP,ioos:station:wmo:42869:1,2020-06-02T19:23:00Z,26.9958,-92.2299,7.2,27.4,11111222
ATP,ioos:station:wmo:42869:1,2020-06-02T19:33:00Z,26.9956,-92.2298,7.3,27.4,11111222
ATP,ioos:station:wmo:42869:1,2020-06-02T19:43:00Z,26.9957,-92.2299,7.3,27.4,11111222
ATP,ioos:station:wmo:42869:1,2020-06-02T19:53:00Z,26.9959,-92.2299,7.4,27.4,11111222
ATP,ioos:station:wmo:42869:1,2020-06-02T20:03:00Z,26.9958,-92.2299,7.3,27.4,11111222
ATP,ioos:station:wmo:42869:1,2020-06-02T20:13:00Z,26.9959,-92.2299,7.2,27.4,11111222
ATP,ioos:station:wmo:42869:1,2020-06-02T20:23:00Z,26.9958,-92.2299,7.3,27.4,11111222
ATP,ioos:station:wmo:42869:1,2020-06-02T20:33:00Z,26.9959,-92.2299,7.2,27.3,11111222
ATP,ioos:station:wmo:42869:1,2020-06-02T20:43:00Z,26.9959,-92.2298,7.4,27.3,11111222
ATP,ioos:station:wmo:42869:1,2020-06-02T20:53:00Z,26.9958,-92.2299,7.3,27.4,11111222
ATP,ioos:station:wmo:42869:1,2020-06-02T21:03:00Z,26.9959,-92.2299,7.4,27.4,11111222
ATP,ioos:station:wmo:42869:1,2020-06-02T21:13:00Z,26.9962,-92.2298,7.3,27.4,11111222
ATP,ioos:station:wmo:42869:1,2020-06-02T21:23:00Z,26.9958,-92.2298,7.3,27.4,11111222
ATP,ioos:station:wmo:42869:1,2020-06-02T21:33:00Z,26.9958,-92.2299,7.1,27.4,11111222
ATP,ioos:station:wmo:42869:1,2020-06-02T21:43:00Z,26.9959,-92.2299,7.4,27.4,11111222
ATP,ioos:station:wmo:42869:1,2020-06-02T21:53:00Z,26.9962,-92.2300,7.2,27.4,11111222
ATP,ioos:station:wmo:42869:1,2020-06-02T22:03:00Z,26.9960,-92.2300,7.4,27.3,11111222
ATP,ioos:station:wmo:42869:1,2020-06-02T22:13:00Z,26.9958,-92.2299,7.1,27.3,11111222